Tracking 21612 objects as of 20-Oct-2020
HD Live streaming from Space Station
objects crossing your sky now

COSMOS 626

Track COSMOS 626 now!
10-day predictions
COSMOS 626 is classified as:


NORAD ID: 7005
Int'l Code: 1973-108A
Perigee: 907.9 km
Apogee: 996.2 km
Inclination: 65.4 °
Period: 103.9 minutes
Semi major axis: 7323 km
RCS: 3.2756 m2 (large)
Launch date: December 27, 1973
Source: Commonwealth of Independent States (former USSR) (CIS)
Launch site: TYURATAM MISSILE AND SPACE COMPLEX (TTMTR)
aabbcc
Your satellite tracking list
Your tracking list is empty




NASA's NSSDC Master Catalog

Two Line Element Set (TLE):
1  7005U 73108A   20294.51417042 -.00000078 +00000-0 +63970-5 0  9998
2  7005 065.4383 327.8151 0060234 218.5996 141.0756 13.85366063368490
Source of the keplerian elements: AFSPC